Tracking 31027 objects as of 19-Jul-2025
HD Live streaming from Space Station
objects crossing your sky now

STARLINK-30544

Track STARLINK-30544 now!
10-day predictions
STARLINK-30544 is classified as:


NORAD ID: 58055
Int'l Code: 2023-158E
Perigee: 565.1 km
Apogee: 567.3 km
Inclination: 43.0 °
Period: 95.8 minutes
Semi major axis: 6937 km
RCS: Unknown
Launch date: October 13, 2023
Source: United States (US)
Launch site: AIR FORCE EASTERN TEST RANGE (AFETR)
Your satellite tracking list
THORAD DELTA 1 DEB
Track 1 satellite(s)




NASA's NSSDC Master Catalog

Two Line Element Set (TLE):
1 58055U 23158E   25199.43271078 -.00000018  00000-0  13724-4 0  9991
2 58055  43.0021 223.1666 0001562 281.9799  78.0869 15.02537830 98290
Source of the keplerian elements: AFSPC